Wind_Speed
18 20 18 16 12 6 6 6 11 20 18 15 14 16 16 17 18 17 17 16 13 15 16 18 16 13 12 13 13 14 16 17 18 19 19 18 17 15 14 14 14 14 15 16 17 18 17 17 18
13 12 11 11 10 11 10 2 20 23 15 10 14 16 14 13 14 12 11 11 10 12 13 15 15 13 12 10 9 9 11 13 14 14 15 16 16 15 15 15 15 15 16 17 18 19 19 19 19
10 8 8 12 17 13 4 11 27 24 10 12 18 14 12 11 10 8 8 10 10 10 11 13 15 16 15 11 9 9 11 11 11 13 14 15 15 15 15 16 16 16 17 18 19 20 21 22 22
8 9 12 16 17 9 3 14 25 20 11 15 16 14 11 9 8 7 10 12 12 11 11 12 14 16 15 11 9 9 10 10 11 12 13 13 13 13 14 14 14 13 12 12 14 16 18 19 20
9 11 18 18 14 4 14 14 15 14 11 12 13 12 10 9 8 9 10 11 11 10 10 11 11 10 9 8 7 7 8 8 9 11 11 12 12 12 12 11 11 11 12 13 14 15 17 17 18
11 15 19 15 6 9 13 13 11 9 7 7 7 11 9 10 10 10 10 11 12 10 10 11 11 8 7 8 8 8 8 9 10 12 13 13 12 12 12 12 14 15 16 17 17 17 17 17 18
12 17 19 10 5 11 11 12 12 8 5 4 6 12 9 12 13 13 12 10 10 11 12 12 12 11 8 7 9 10 11 12 12 12 12 13 12 13 14 16 17 18 20 20 20 20 21 22 22
10 12 18 10 7 11 11 11 13 15 14 5 6 13 11 15 14 14 13 10 10 10 11 12 13 12 9 7 9 12 13 12 11 12 13 14 14 15 16 18 20 20 20 19 20 21 23 24 24
10 11 16 10 7 10 11 10 11 12 10 9 8 13 12 13 14 14 13 11 10 10 11 11 14 14 11 8 9 11 12 12 12 13 14 16 17 18 18 18 19 19 19 18 19 20 20 21 22
12 15 12 5 11 11 10 10 11 11 11 5 12 15 14 14 15 16 15 12 12 12 12 12 13 13 13 12 8 8 11 13 14 15 16 17 17 17 18 18 18 18 18 19 20 19 19 19 19
13 15 11 9 17 20 15 10 12 12 14 12 18 20 16 15 17 18 18 18 16 16 15 14 14 14 14 15 12 9 9 12 14 15 16 16 17 18 19 18 16 16 16 17 19 19 19 19 20
15 18 16 14 17 23 18 12 14 16 17 17 22 25 18 14 20 21 21 22 22 22 21 17 17 17 17 17 16 14 12 12 13 14 16 17 17 18 19 19 18 19 19 20 19 18 17 19 21
19 19 20 19 20 20 18 16 15 18 20 21 21 25 21 19 22 23 23 24 25 25 24 20 19 19 19 18 18 17 16 15 15 17 18 18 18 19 20 21 21 21 22 21 20 21 20 22 23
21 21 22 21 20 20 19 18 18 18 20 21 18 25 24 24 22 24 25 25 26 27 25 22 20 20 20 20 19 19 18 18 16 16 16 18 18 19 19 19 20 21 22 22 22 23 25 24 24
25 24 25 23 21 20 19 19 17 19 21 24 25 26 27 26 25 26 26 25 26 28 27 24 23 21 20 19 21 21 20 19 19 18 19 20 21 23 23 21 22 24 24 26 27 28 28 27 27
28 27 26 23 22 20 19 21 17 20 24 29 29 27 27 28 29 30 27 25 25 27 28 27 25 23 22 21 23 24 24 22 22 21 22 24 23 25 25 24 26 28 28 29 31 31 32 33 36
28 28 26 23 21 20 21 23 20 18 28 33 30 28 30 32 33 36 30 27 26 26 28 29 26 25 25 24 24 24 25 24 24 25 26 29 28 29 29 28 30 31 32 33 34 35 36 38 41
24 23 21 21 19 23 25 26 25 20 30 33 33 32 34 35 36 39 34 30 28 26 28 29 28 28 28 27 26 26 27 27 26 27 29 31 32 33 33 32 35 36 37 38 38 40 42 43 44
23 22 21 20 19 21 29 34 33 27 30 34 36 36 35 36 40 42 37 32 30 28 28 29 31 32 34 33 32 32 32 32 32 33 34 34 35 35 36 37 39 41 43 44 44 46 48 50 52
23 26 28 27 25 27 27 32 36 37 34 32 38 41 38 38 43 43 38 33 31 30 30 31 33 36 38 39 39 39 37 36 36 38 38 39 39 38 37 39 41 43 47 49 51 53 55 57 58
25 27 28 30 30 32 35 37 40 43 38 38 41 45 46 41 45 46 42 35 33 33 34 33 35 39 41 42 44 44 43 41 40 41 42 43 43 42 42 43 45 48 50 51 54 55 58 58 59
24 24 26 28 31 33 33 37 38 37 34 33 35 39 42 36 39 46 42 36 35 35 35 35 38 40 43 45 46 47 47 46 45 46 46 46 45 45 45 46 48 51 52 53 55 54 55 55 56
18 19 22 24 28 33 35 39 38 32 32 32 32 35 38 34 35 43 41 36 35 34 33 36 41 44 46 47 47 48 49 49 49 48 46 46 47 49 49 49 50 51 52 53 54 54 55 56 58
17 19 21 24 26 30 28 30 33 28 29 29 26 31 35 32 34 35 33 33 33 33 34 37 42 45 47 47 47 48 49 49 48 47 47 49 51 51 50 51 51 52 53 53 54 55 55 57 60
19 18 19 20 21 21 17 21 23 20 21 23 24 31 33 34 35 32 31 32 34 34 36 39 42 44 44 46 48 48 48 49 49 50 50 53 55 54 55 54 52 52 52 54 57 59 58 59 62
22 21 19 17 18 17 15 16 18 19 20 24 29 35 37 33 33 33 32 31 31 33 36 38 40 42 44 46 47 47 48 49 49 51 52 53 55 55 55 53 51 52 55 56 58 60 61 63 64
22 23 20 19 19 22 23 23 20 20 26 29 30 31 28 26 27 27 27 26 27 30 32 34 37 39 40 41 42 44 46 47 48 50 51 51 52 53 52 52 53 54 56 58 60 62 64 65 64
24 22 20 23 24 24 20 17 17 19 23 26 30 29 19 18 21 24 25 26 27 30 31 33 34 35 35 36 38 41 43 45 48 48 48 50 52 54 55 54 54 56 58 60 62 62 63 62 62
21 21 22 25 24 23 22 18 21 23 25 27 33 35 19 18 21 24 27 29 32 34 35 35 34 34 36 37 38 40 43 44 45 47 50 53 55 56 55 54 55 56 58 59 59 59 60 61 62
23 25 25 28 28 26 25 21 24 28 28 32 37 38 33 28 24 24 28 31 34 36 37 37 36 38 39 40 42 43 44 44 47 50 53 55 55 55 54 53 53 55 56 57 57 58 60 61 62
Wind_Direction
226 227 228 229 221 176 93 70 244 251 250 254 265 271 272 281 287 294 296 293 288 281 276 270 273 269 262 259 258 254 249 248 248 249 250 251 252 245 241 245 249 251 252 251 251 253 254 255 255
229 228 220 206 163 104 42 246 243 258 260 265 275 275 283 290 295 300 304 304 298 285 275 265 264 262 257 254 257 261 258 253 250 248 247 248 248 246 248 254 259 261 259 257 256 256 256 256 257
217 211 191 164 129 95 66 230 252 271 275 284 287 290 302 306 310 320 338 345 341 324 300 279 268 262 259 260 264 267 262 255 251 248 247 247 248 251 257 261 263 262 261 261 262 262 261 260 260
191 176 155 147 107 72 222 216 250 269 276 283 296 306 318 323 325 343 358 354 346 335 323 309 289 275 265 260 257 253 251 252 254 252 248 247 250 255 259 261 261 261 264 270 271 266 264 263 263
163 158 148 128 96 149 242 233 249 270 279 288 296 309 323 329 338 348 350 346 340 341 345 346 328 294 262 240 226 228 232 239 249 253 255 260 262 259 256 253 256 265 274 279 276 269 265 265 266
153 152 127 94 77 227 235 236 244 250 277 296 295 303 327 331 333 336 341 344 341 348 357 3 353 326 279 233 218 226 226 239 252 257 261 264 262 261 260 262 268 274 278 278 276 272 269 266 267
168 158 121 105 200 235 240 226 226 234 236 283 291 294 316 320 327 328 332 337 339 344 351 359 0 352 327 273 242 240 241 246 250 255 259 260 262 268 270 273 275 278 281 280 277 274 270 268 269
172 169 132 125 194 224 241 236 230 221 195 186 277 280 302 308 321 330 331 328 332 334 342 348 350 353 343 312 273 261 251 248 252 261 266 267 269 271 275 278 278 278 280 278 275 273 271 270 271
168 161 128 122 213 222 242 240 256 269 222 169 263 283 298 313 322 332 339 332 328 327 330 337 342 346 343 321 292 279 264 258 263 273 278 275 274 275 279 285 285 281 278 277 276 273 271 269 269
176 152 118 131 205 210 233 239 247 282 286 258 277 282 292 311 321 326 337 341 338 330 326 327 328 334 338 332 314 294 282 277 276 278 282 284 284 287 292 295 292 285 280 276 272 267 264 262 262
191 180 162 208 213 210 200 230 245 250 273 282 276 267 268 303 321 328 337 342 344 339 329 323 320 321 324 329 327 317 301 289 283 282 286 288 292 295 296 298 295 289 287 284 277 267 266 265 263
208 201 200 211 221 221 202 201 242 245 258 261 273 276 265 305 323 331 336 338 341 342 337 326 325 320 318 320 320 312 301 292 291 293 297 300 304 306 304 303 296 291 289 287 283 275 276 279 281
220 221 224 225 222 218 209 207 222 245 251 250 264 281 294 304 313 324 330 333 332 334 337 329 324 320 316 316 314 308 301 300 307 310 312 314 317 315 313 312 307 304 298 292 286 284 284 286 289
228 230 235 237 234 229 224 221 214 235 258 263 266 279 285 291 297 311 322 326 324 323 326 325 321 318 314 312 308 305 305 309 320 323 322 322 325 324 323 323 318 311 305 299 291 286 283 284 288
233 234 240 243 245 242 235 236 225 236 249 258 262 271 281 286 287 298 311 320 317 313 314 315 315 314 310 306 301 300 305 311 316 319 318 316 318 317 319 322 315 308 308 305 299 294 288 284 286
240 241 244 249 254 253 242 241 232 245 251 251 256 266 275 284 288 292 302 312 309 305 303 303 307 310 307 304 299 296 299 303 306 308 308 308 310 309 311 313 310 307 306 302 297 297 293 287 286
240 244 249 250 257 267 259 252 235 233 248 248 251 262 273 281 287 288 296 305 302 296 292 292 297 303 303 304 303 301 299 303 304 301 300 301 303 305 307 308 305 304 304 301 298 297 295 291 290
243 247 256 262 254 253 254 252 252 240 249 252 256 261 270 278 283 286 292 298 297 289 282 281 287 295 297 297 297 299 300 302 306 306 302 300 301 303 303 304 302 300 299 298 299 300 296 294 292
230 227 234 248 257 247 248 247 248 243 255 264 263 264 266 273 280 284 288 292 292 285 277 275 279 286 290 290 290 291 294 296 298 301 302 300 297 298 300 300 299 298 296 296 296 296 295 292 289
238 233 230 227 224 226 235 249 254 249 240 256 266 266 266 270 274 280 285 288 285 278 272 273 278 282 285 286 286 285 287 289 290 292 295 296 294 292 293 294 296 296 294 293 293 292 291 289 286
240 242 241 239 236 235 235 245 253 261 260 251 257 266 271 269 270 276 282 282 278 271 269 272 278 280 281 283 283 283 284 285 285 286 288 292 292 289 289 291 294 294 292 290 289 289 289 289 288
246 249 249 245 243 244 244 253 259 269 275 270 266 267 272 275 264 269 275 277 272 267 264 268 274 277 278 279 280 280 281 284 285 285 285 289 291 288 287 288 293 294 293 292 292 291 290 289 288
252 251 252 253 255 255 251 254 258 261 264 267 271 270 271 277 263 261 267 270 269 266 262 264 270 274 276 277 276 276 278 281 284 287 288 289 290 289 288 288 291 293 293 293 293 292 289 288 288
254 255 257 258 260 263 269 269 269 265 262 267 271 266 268 274 268 265 268 267 266 266 266 266 270 273 274 274 275 278 279 282 286 290 290 289 290 291 289 288 289 289 290 291 293 292 289 288 287
260 262 265 270 274 283 294 287 288 284 263 253 251 252 259 265 270 272 270 265 265 267 268 269 271 274 274 274 276 278 281 284 286 287 287 289 291 292 291 291 291 291 292 293 294 293 291 290 289
259 265 266 259 258 265 265 274 286 265 253 249 252 258 266 266 266 266 264 262 265 269 272 275 277 278 277 277 278 279 281 282 284 285 287 290 294 296 296 295 294 295 296 295 294 294 292 291 291
249 253 267 271 267 261 256 248 252 269 278 277 274 274 272 265 260 257 256 260 265 270 274 278 280 280 280 280 279 279 280 282 284 286 289 294 298 301 303 303 300 297 295 293 292 290 291 293 294
258 255 248 253 259 264 268 273 274 266 262 263 265 266 267 268 263 258 257 262 267 270 275 280 283 282 282 281 281 282 284 286 287 289 296 301 304 304 303 301 298 295 295 294 293 292 293 295 296
263 263 247 244 249 258 266 270 277 266 258 258 268 269 263 273 266 260 259 264 268 272 278 284 284 283 282 282 284 286 287 288 292 297 302 303 302 300 298 296 296 296 297 296 296 295 296 297 299
250 253 253 255 257 257 261 264 264 264 263 264 265 268 274 274 268 263 263 266 270 275 280 284 285 284 286 286 285 285 288 291 297 300 301 300 297 295 293 294 296 298 298 297 296 297 298 300 301
Height
5885 5887 5889 5892 5897 5901 5902 5904 5907 5899 5897 5898 5899 5898 5897 5897 5896 5897 5892 5889 5891 5890 5889 5889 5888 5887 5887 5887 5887 5887 5887 5888 5889 5890 5891 5892 5893 5893 5893 5894 5895 5895 5895 5895 5895 5895 5895 5896 5897
5884 5886 5888 5892 5896 5897 5901 5908 5901 5896 5896 5897 5897 5896 5895 5895 5894 5892 5890 5888 5888 5887 5886 5885 5885 5884 5884 5883 5883 5883 5884 5886 5887 5888 5889 5890 5890 5891 5890 5891 5891 5892 5892 5892 5892 5892 5893 5893 5894
5883 5885 5887 5891 5894 5896 5904 5907 5897 5897 5896 5896 5895 5894 5894 5893 5892 5891 5889 5887 5886 5885 5884 5883 5882 5881 5880 5880 5880 5880 5882 5883 5885 5886 5887 5887 5887 5887 5888 5888 5888 5889 5889 5889 5889 5890 5890 5890 5890
5882 5884 5887 5892 5892 5898 5903 5903 5896 5897 5897 5896 5894 5891 5891 5892 5892 5890 5888 5886 5885 5885 5882 5881 5879 5879 5878 5878 5878 5879 5880 5881 5882 5883 5884 5884 5884 5885 5885 5886 5886 5887 5887 5887 5887 5887 5886 5886 5886
5881 5884 5887 5890 5894 5904 5903 5899 5897 5897 5896 5895 5893 5891 5891 5892 5891 5890 5888 5887 5885 5884 5881 5880 5878 5877 5877 5877 5877 5877 5878 5879 5880 5881 5882 5882 5882 5882 5883 5884 5884 5885 5885 5884 5884 5884 5883 5882 5882
5881 5885 5887 5891 5899 5904 5902 5898 5898 5897 5896 5895 5893 5890 5891 5891 5890 5890 5888 5886 5884 5883 5881 5879 5877 5876 5876 5875 5875 5876 5876 5877 5878 5878 5879 5879 5880 5880 5881 5881 5881 5882 5881 5881 5880 5880 5880 5879 5879
5882 5883 5884 5892 5902 5902 5901 5897 5896 5896 5896 5896 5894 5890 5891 5890 5889 5888 5887 5885 5884 5882 5879 5877 5876 5875 5875 5875 5875 5875 5875 5875 5874 5875 5876 5877 5877 5878 5878 5878 5878 5877 5877 5876 5875 5875 5875 5875 5875
5881 5884 5885 5892 5899 5901 5899 5896 5894 5892 5891 5895 5895 5891 5891 5890 5888 5887 5886 5884 5882 5881 5880 5878 5877 5876 5875 5874 5874 5874 5873 5872 5872 5873 5873 5874 5874 5875 5875 5874 5874 5873 5872 5872 5871 5871 5871 5871 5871
5882 5886 5886 5892 5900 5900 5898 5896 5894 5892 5888 5889 5893 5890 5890 5888 5887 5886 5885 5884 5882 5881 5880 5879 5877 5875 5874 5873 5872 5871 5871 5870 5871 5871 5871 5871 5870 5871 5870 5870 5870 5869 5869 5868 5867 5867 5867 5866 5866
5882 5884 5885 5891 5897 5898 5898 5897 5895 5893 5890 5889 5889 5888 5886 5886 5885 5884 5884 5883 5881 5879 5878 5878 5877 5875 5873 5872 5870 5869 5869 5868 5869 5869 5868 5867 5866 5867 5866 5866 5865 5864 5864 5863 5863 5863 5862 5862 5862
5880 5883 5882 5888 5892 5892 5894 5896 5895 5895 5893 5892 5888 5882 5881 5884 5884 5882 5881 5880 5879 5878 5877 5876 5875 5874 5873 5871 5870 5868 5867 5867 5866 5866 5865 5864 5863 5863 5862 5862 5861 5859 5859 5859 5858 5858 5858 5858 5857
5878 5880 5881 5884 5888 5888 5890 5893 5895 5894 5893 5890 5887 5879 5874 5877 5881 5880 5879 5878 5877 5876 5874 5873 5873 5872 5871 5870 5869 5867 5867 5866 5865 5864 5862 5860 5859 5858 5858 5858 5857 5856 5856 5856 5855 5854 5854 5853 5852
5874 5877 5879 5881 5882 5884 5886 5888 5891 5892 5890 5887 5884 5879 5876 5875 5878 5878 5877 5877 5876 5875 5874 5872 5871 5870 5869 5868 5867 5865 5865 5864 5863 5861 5860 5858 5856 5855 5854 5853 5852 5851 5851 5850 5850 5849 5849 5848 5847
5871 5874 5875 5877 5879 5880 5882 5884 5887 5889 5888 5885 5882 5879 5878 5877 5876 5876 5875 5875 5875 5873 5872 5871 5870 5869 5867 5866 5865 5864 5862 5861 5860 5859 5857 5855 5854 5852 5851 5850 5849 5847 5846 5846 5845 5845 5844 5843 5842
5866 5869 5871 5872 5874 5876 5879 5881 5883 5887 5886 5884 5883 5881 5878 5877 5874 5873 5873 5873 5873 5871 5871 5869 5868 5867 5866 5865 5864 5862 5861 5859 5858 5857 5855 5854 5852 5850 5848 5848 5846 5844 5844 5843 5840 5839 5838 5837 5836
5861 5864 5866 5869 5869 5872 5875 5877 5880 5884 5883 5881 5880 5879 5877 5875 5871 5869 5870 5871 5870 5869 5868 5867 5866 5865 5864 5863 5862 5860 5858 5857 5856 5855 5853 5851 5850 5848 5846 5845 5842 5840 5840 5838 5836 5834 5833 5831 5828
5855 5858 5861 5864 5866 5867 5869 5871 5876 5878 5877 5874 5875 5875 5873 5872 5869 5864 5866 5868 5867 5867 5865 5864 5863 5863 5861 5860 5859 5857 5856 5854 5853 5851 5850 5847 5846 5844 5842 5841 5838 5835 5833 5830 5828 5827 5825 5822 5820
5851 5853 5856 5859 5863 5866 5866 5868 5870 5872 5870 5869 5870 5870 5869 5867 5865 5859 5860 5863 5862 5862 5862 5860 5859 5859 5858 5856 5855 5854 5852 5851 5849 5847 5845 5843 5841 5838 5836 5835 5830 5827 5825 5822 5820 5818 5815 5812 5809
5845 5848 5853 5858 5862 5863 5863 5862 5864 5866 5865 5863 5863 5864 5865 5863 5860 5854 5854 5857 5857 5856 5856 5856 5855 5854 5853 5852 5851 5849 5848 5846 5845 5842 5840 5838 5835 5832 5829 5827 5823 5820 5816 5813 5812 5809 5805 5802 5798
5840 5842 5846 5850 5853 5856 5857 5855 5854 5857 5858 5858 5855 5856 5858 5857 5853 5848 5849 5851 5851 5850 5850 5850 5849 5848 5846 5846 5845 5843 5842 5840 5839 5837 5834 5832 5829 5826 5822 5818 5815 5812 5807 5804 5802 5798 5794 5789 5785
5835 5837 5840 5843 5846 5847 5848 5847 5847 5847 5850 5851 5850 5848 5850 5851 5845 5841 5841 5844 5843 5842 5842 5843 5843 5841 5839 5839 5837 5836 5834 5833 5832 5830 5827 5824 5821 5817 5814 5810 5806 5801 5796 5793 5788 5785 5780 5776 5771
5829 5831 5833 5834 5836 5838 5841 5838 5840 5840 5840 5841 5841 5840 5840 5842 5840 5833 5832 5834 5833 5833 5835 5836 5835 5833 5831 5830 5830 5828 5826 5824 5823 5820 5818 5815 5812 5808 5805 5800 5796 5790 5785 5781 5775 5771 5766 5763 5758
5824 5826 5827 5828 5829 5829 5830 5830 5831 5835 5835 5835 5834 5833 5832 5833 5831 5826 5825 5826 5825 5824 5827 5829 5828 5826 5823 5822 5821 5819 5817 5815 5812 5809 5807 5804 5801 5798 5794 5789 5784 5779 5775 5770 5765 5760 5754 5750 5745
5819 5820 5820 5821 5822 5822 5824 5824 5823 5827 5828 5829 5829 5826 5822 5822 5820 5819 5819 5818 5817 5817 5818 5820 5819 5818 5816 5814 5812 5810 5807 5804 5802 5799 5796 5792 5789 5787 5784 5778 5773 5767 5763 5758 5753 5748 5742 5738 5732
5814 5815 5816 5816 5816 5816 5819 5818 5818 5819 5820 5821 5821 5817 5814 5813 5811 5812 5812 5811 5809 5809 5810 5811 5810 5809 5807 5806 5803 5801 5798 5795 5793 5789 5785 5780 5776 5774 5771 5765 5760 5755 5751 5746 5741 5735 5729 5724 5719
5809 5810 5812 5813 5814 5816 5818 5817 5817 5815 5813 5812 5811 5808 5807 5807 5806 5806 5804 5803 5803 5802 5801 5801 5801 5801 5799 5797 5794 5791 5788 5786 5783 5777 5774 5770 5765 5760 5756 5752 5748 5743 5738 5732 5727 5721 5716 5710 5704
5803 5804 5806 5807 5807 5807 5808 5810 5811 5809 5807 5805 5802 5799 5799 5799 5799 5798 5797 5796 5796 5796 5795 5794 5793 5791 5789 5786 5784 5780 5777 5774 5772 5767 5763 5760 5754 5748 5744 5739 5735 5729 5724 5718 5713 5707 5701 5696 5690
5797 5799 5801 5802 5802 5801 5803 5804 5806 5805 5802 5798 5793 5791 5793 5793 5792 5791 5790 5790 5790 5789 5788 5787 5785 5783 5780 5777 5774 5771 5767 5764 5761 5757 5753 5747 5742 5736 5730 5725 5720 5715 5710 5704 5699 5694 5688 5682 5676
5792 5793 5794 5797 5798 5798 5798 5801 5796 5795 5794 5792 5788 5785 5784 5786 5785 5784 5784 5784 5783 5782 5780 5779 5777 5774 5771 5768 5765 5762 5758 5754 5750 5746 5742 5736 5729 5724 5718 5712 5707 5702 5697 5692 5686 5681 5675 5668 5661
5788 5788 5790 5790 5789 5789 5790 5794 5790 5788 5786 5783 5779 5778 5777 5777 5778 5778 5778 5777 5775 5773 5771 5769 5767 5765 5762 5758 5754 5751 5747 5743 5739 5734 5729 5723 5718 5712 5706 5701 5695 5690 5685 5679 5673 5667 5661 5654 5646